Wind_Speed
31 32 33 35 34 35 38 38 38 38 40 41 41 40 41 41 41 40 39 38 37 37 36 35 34 34 34 34 34 34 34 34 33 33 33 33 32 32 32 32 33 33 33
31 32 33 34 35 34 36 39 38 38 39 40 40 40 41 41 41 41 40 40 39 37 36 36 36 34 34 35 36 35 34 34 34 34 33 33 33 33 33 33 33 34 34
31 31 32 33 34 34 35 36 38 38 38 38 40 40 40 41 41 41 42 41 41 40 39 37 37 37 36 34 35 36 35 34 34 34 34 33 33 33 33 33 34 34 34
31 32 32 33 34 34 34 35 37 37 36 37 39 40 40 41 42 41 41 42 43 41 40 38 37 37 37 36 35 35 36 35 34 34 34 34 33 33 34 34 34 34 34
31 32 32 33 34 35 35 35 35 36 37 38 38 39 39 39 40 41 41 42 42 41 40 40 39 38 38 38 37 36 36 36 35 35 34 35 34 34 35 34 34 34 35
31 33 33 33 34 35 35 35 35 35 35 36 38 38 39 39 40 40 40 40 41 41 41 41 41 40 39 39 38 36 36 36 36 35 35 35 35 35 35 34 34 34 35
29 31 33 33 34 35 35 35 35 35 35 35 36 38 38 39 40 39 39 39 40 41 41 40 40 40 39 38 37 38 37 36 36 35 35 35 34 35 35 34 34 34 35
28 30 32 33 33 34 34 34 35 34 35 37 36 37 39 39 39 39 38 39 40 40 40 40 40 40 39 38 37 38 37 36 36 35 35 35 34 34 34 35 35 35 35
28 29 31 32 33 34 35 35 35 34 34 37 38 37 37 38 39 39 39 39 40 41 40 41 40 39 39 38 38 37 37 37 35 35 35 34 34 33 33 33 33 34 34
27 29 30 31 32 33 34 36 36 35 35 37 38 38 37 38 38 39 39 39 40 41 41 41 42 40 40 38 36 37 38 37 36 36 35 34 34 34 34 34 34 34 33
25 27 29 31 31 32 32 33 35 35 35 36 38 39 38 38 38 39 39 39 40 40 41 41 41 41 40 39 38 37 38 38 38 37 36 36 35 34 34 34 34 34 34
26 27 28 30 31 32 32 31 33 34 35 36 38 40 40 40 39 39 40 40 41 41 42 42 41 40 40 40 39 38 38 38 37 37 37 37 36 35 34 34 34 34 34
27 28 28 29 31 31 32 32 33 34 35 36 37 39 40 40 40 40 40 41 41 42 42 42 42 42 41 39 39 39 38 38 37 37 38 37 36 35 34 34 34 33 34
27 27 29 29 31 31 31 32 32 33 35 36 37 38 40 41 41 40 40 41 41 41 42 42 42 41 41 41 40 40 38 38 38 37 37 36 36 35 35 35 35 34 34
26 27 27 28 30 31 31 32 32 32 33 35 37 38 39 41 41 41 40 40 41 41 42 42 42 42 42 41 41 41 40 39 39 38 37 37 36 35 36 36 35 35 35
26 27 28 28 29 30 31 31 32 32 33 34 36 37 38 40 40 40 40 39 40 41 41 41 42 41 42 41 41 41 40 40 40 39 38 37 36 37 36 36 35 35 34
25 26 27 28 29 31 31 32 33 33 34 34 35 36 37 38 39 39 40 40 39 40 40 40 41 40 40 40 41 41 41 40 40 40 39 38 38 38 37 36 36 35 35
25 26 27 27 29 30 32 32 33 33 33 34 34 35 36 38 39 40 40 40 40 39 39 40 40 40 40 41 41 40 40 40 40 40 39 38 38 38 36 36 35 35 34
25 26 27 28 29 30 31 31 32 33 33 33 34 34 35 36 37 38 39 40 40 40 40 40 40 40 41 41 41 41 40 40 40 39 39 38 37 37 37 36 35 34 34
25 26 26 27 29 30 31 31 31 32 33 34 34 34 33 34 36 37 38 39 40 39 39 39 39 40 40 40 40 41 40 40 40 39 39 39 38 37 37 35 34 34 33
25 26 27 28 29 30 31 31 31 32 32 33 33 34 34 34 35 37 39 39 40 39 39 39 39 40 41 40 40 40 41 40 39 38 38 37 38 37 36 35 34 33 33
25 25 26 27 28 29 31 31 31 31 32 33 33 33 33 34 34 36 37 38 39 39 39 39 39 39 38 38 38 39 39 39 39 38 37 37 36 36 36 35 35 34 33
24 25 25 27 28 29 30 31 32 32 32 32 33 33 34 34 34 35 35 36 37 37 37 37 37 37 37 37 37 38 38 38 37 37 37 36 36 36 36 36 35 33 32
25 25 26 26 27 28 29 30 31 31 32 33 33 33 34 34 34 34 34 35 35 35 35 35 35 35 35 35 35 36 36 36 36 36 35 35 36 36 35 35 34 32 31
25 26 26 26 27 28 29 30 31 32 32 33 33 33 34 34 33 33 32 32 34 34 34 33 33 33 33 34 34 34 34 35 35 34 34 33 34 34 35 35 34 32 32
25 26 26 27 27 28 29 30 30 31 32 32 33 33 32 33 32 32 32 32 32 33 32 32 32 32 33 33 33 32 33 33 34 33 33 33 33 33 33 33 32 32 31
Wind_Direction
232 231 230 229 230 230 230 230 233 234 235 234 236 237 237 238 240 241 243 245 247 250 253 256 257 258 261 263 266 269 270 271 273 274 276 278 280 282 284 286 288 290 292
233 234 233 232 232 231 232 234 234 235 235 235 236 237 239 240 241 242 243 246 248 250 253 255 257 259 262 263 265 268 270 270 271 273 275 277 278 281 283 285 287 289 291
233 234 235 234 233 233 233 234 233 236 237 238 237 239 240 241 242 243 244 246 249 250 253 255 257 258 261 265 265 265 267 269 270 272 274 276 277 280 282 284 287 289 292
235 235 236 236 235 235 235 235 235 236 238 239 239 240 242 242 242 245 246 246 248 251 254 255 257 258 259 261 264 265 266 268 269 271 274 276 278 280 282 284 287 289 291
236 235 237 238 238 238 238 239 238 238 238 240 241 241 242 244 243 245 247 248 249 251 254 257 256 258 260 261 263 264 265 266 268 271 273 274 277 280 282 285 286 288 290
236 236 236 238 239 240 240 240 240 240 239 240 241 243 244 245 246 246 247 249 250 252 254 257 258 259 261 263 264 265 265 265 269 271 274 275 277 280 282 283 285 287 289
237 236 237 239 241 241 241 241 242 243 242 242 243 245 246 247 248 249 250 250 251 253 254 257 260 261 263 265 266 265 267 269 269 272 274 276 277 278 280 281 284 286 289
244 241 239 239 241 241 243 242 243 244 244 243 244 246 248 248 249 250 252 252 252 254 256 258 261 261 263 265 266 265 267 269 270 272 273 275 278 278 279 281 282 285 288
245 245 244 242 241 243 244 244 244 245 246 246 246 246 249 250 250 251 253 254 254 255 256 257 259 262 264 266 265 265 266 268 269 273 274 275 277 279 280 281 283 286 287
248 247 246 244 242 243 245 245 246 246 247 247 246 247 250 251 252 254 255 255 256 256 257 259 260 262 265 264 264 266 267 269 270 272 273 276 278 279 280 282 283 285 287
249 248 246 245 244 245 246 246 247 247 248 249 248 249 250 252 254 255 256 256 257 257 259 260 261 262 264 265 266 268 269 269 269 270 272 275 277 278 280 282 284 285 286
252 250 247 247 247 247 248 249 248 249 250 251 251 252 252 254 256 257 257 257 258 259 261 261 262 262 264 266 266 267 268 269 269 270 272 274 275 277 278 281 283 284 286
255 252 250 249 248 249 250 251 251 251 252 253 254 253 253 254 255 256 257 259 259 260 262 263 263 262 263 265 265 265 267 268 270 270 271 273 274 277 279 280 282 284 286
257 254 252 251 251 253 254 254 254 254 255 255 255 255 254 254 255 257 258 259 259 260 262 263 263 263 263 263 264 266 267 268 268 269 271 272 273 275 277 279 280 282 284
258 256 255 254 254 256 256 257 257 257 257 256 256 257 256 255 256 257 258 259 259 260 261 263 264 264 264 264 264 265 265 265 266 267 269 270 271 273 275 277 278 279 282
260 258 258 258 257 257 258 258 258 259 259 259 258 258 257 256 256 257 258 260 261 261 262 264 265 265 265 265 265 264 263 263 265 266 267 268 270 271 273 275 276 278 280
263 262 262 262 260 259 258 259 258 260 260 260 260 259 258 257 256 257 258 260 262 263 263 265 265 265 266 266 264 264 262 262 264 265 265 267 268 270 271 272 273 275 278
264 265 265 264 263 262 261 260 259 260 260 260 260 260 261 259 258 258 259 260 262 263 264 265 265 265 265 265 264 264 264 263 265 265 265 266 266 268 269 270 271 273 275
267 266 266 265 264 264 263 261 260 261 261 261 261 261 262 262 260 260 261 262 262 263 264 265 265 265 265 265 265 264 263 264 265 264 264 264 265 265 266 267 269 270 273
267 268 267 266 266 265 264 263 264 263 263 263 262 262 264 264 263 262 262 263 263 264 265 265 264 265 266 266 265 264 264 264 264 263 263 263 264 264 263 265 267 267 270
271 270 269 267 267 267 265 264 264 264 263 264 263 263 264 265 264 263 263 264 264 264 264 264 264 265 265 265 265 265 264 263 263 262 262 262 262 262 262 264 266 268 269
274 272 269 268 268 268 267 265 264 264 263 263 263 265 266 267 266 265 264 264 264 263 263 264 265 265 264 263 263 264 264 264 262 262 262 260 260 261 261 262 265 267 269
276 274 271 270 270 270 267 267 266 265 265 265 265 266 267 268 268 266 265 265 265 264 263 263 263 264 264 264 264 264 264 263 261 261 261 261 259 259 260 261 264 266 266
277 276 275 274 274 273 270 268 268 267 267 267 268 268 269 269 268 267 266 264 264 263 262 262 262 263 263 263 263 263 262 261 260 260 260 260 259 259 259 260 262 263 263
279 278 277 276 276 275 273 271 270 269 268 268 269 270 270 270 269 267 265 264 262 263 263 262 261 261 261 262 263 262 262 260 259 259 259 260 260 259 259 259 259 260 260
281 280 278 278 278 278 276 274 272 272 270 269 269 270 271 270 270 268 266 265 264 263 263 262 261 261 261 261 262 263 263 260 259 260 259 258 259 259 258 257 257 258 258
Height
5722 5725 5728 5732 5735 5739 5743 5746 5749 5753 5756 5760 5763 5766 5769 5773 5776 5778 5781 5784 5786 5788 5789 5791 5792 5792 5793 5794 5794 5794 5793 5793 5792 5791 5790 5789 5787 5785 5783 5781 5779 5777 5774
5715 5718 5722 5725 5728 5732 5735 5738 5742 5745 5748 5751 5755 5758 5761 5764 5767 5770 5773 5775 5778 5779 5781 5783 5784 5785 5785 5785 5786 5786 5785 5785 5784 5784 5782 5781 5781 5778 5776 5774 5772 5769 5767
5709 5712 5715 5718 5722 5724 5727 5731 5733 5737 5740 5743 5746 5750 5753 5756 5759 5762 5765 5767 5769 5771 5773 5774 5775 5776 5776 5777 5777 5777 5777 5777 5776 5775 5775 5773 5773 5771 5770 5767 5764 5762 5760
5703 5706 5709 5712 5715 5718 5721 5723 5726 5729 5732 5735 5738 5742 5745 5747 5750 5753 5756 5759 5760 5762 5764 5766 5766 5767 5768 5768 5769 5768 5768 5768 5768 5767 5766 5765 5764 5763 5762 5760 5757 5755 5752
5698 5700 5703 5706 5708 5711 5714 5717 5719 5722 5725 5728 5731 5734 5736 5739 5742 5745 5748 5750 5752 5754 5755 5756 5757 5758 5759 5760 5760 5760 5760 5760 5760 5759 5758 5757 5756 5755 5753 5752 5750 5747 5745
5692 5694 5696 5699 5701 5704 5707 5710 5712 5715 5717 5720 5723 5726 5728 5731 5733 5736 5739 5741 5743 5745 5746 5748 5749 5749 5750 5751 5751 5752 5751 5751 5751 5751 5750 5749 5748 5747 5745 5744 5742 5740 5737
5685 5687 5689 5692 5694 5697 5699 5702 5705 5707 5710 5712 5715 5717 5720 5722 5725 5727 5729 5732 5734 5736 5737 5738 5740 5740 5741 5742 5742 5743 5743 5743 5743 5742 5742 5741 5740 5738 5737 5736 5734 5732 5729
5679 5681 5683 5685 5688 5690 5692 5694 5697 5699 5702 5704 5707 5709 5711 5714 5716 5718 5720 5722 5724 5726 5728 5729 5730 5731 5732 5733 5734 5734 5735 5735 5735 5734 5733 5732 5731 5730 5729 5728 5726 5724 5722
5673 5674 5676 5678 5680 5682 5685 5687 5689 5691 5694 5696 5699 5701 5703 5705 5707 5710 5711 5713 5715 5717 5718 5720 5721 5722 5723 5723 5724 5725 5725 5726 5726 5725 5725 5724 5723 5722 5721 5719 5718 5716 5714
5666 5668 5669 5671 5673 5675 5677 5679 5681 5684 5686 5688 5690 5693 5695 5697 5699 5700 5702 5704 5706 5707 5708 5710 5712 5713 5713 5714 5715 5715 5716 5717 5717 5717 5716 5716 5715 5714 5713 5711 5710 5708 5706
5660 5661 5662 5664 5666 5668 5670 5671 5673 5676 5678 5680 5682 5684 5686 5688 5690 5691 5693 5695 5696 5698 5699 5701 5702 5703 5704 5705 5705 5706 5707 5707 5707 5707 5707 5706 5706 5705 5704 5703 5701 5699 5697
5653 5654 5655 5657 5659 5660 5662 5664 5665 5667 5669 5671 5673 5675 5677 5679 5681 5682 5684 5686 5687 5688 5689 5691 5692 5693 5694 5695 5696 5697 5697 5698 5698 5698 5697 5697 5697 5696 5696 5694 5693 5691 5689
5646 5647 5648 5650 5651 5653 5654 5656 5657 5659 5661 5663 5664 5666 5668 5669 5671 5673 5674 5676 5677 5678 5680 5681 5682 5683 5684 5685 5686 5687 5687 5688 5688 5688 5688 5688 5688 5687 5687 5685 5684 5683 5681
5639 5640 5641 5642 5644 5645 5647 5648 5649 5650 5652 5653 5655 5656 5658 5660 5662 5663 5664 5666 5667 5669 5670 5671 5672 5673 5674 5675 5676 5676 5677 5678 5678 5679 5679 5679 5678 5678 5677 5676 5675 5674 5672
5632 5633 5634 5635 5636 5637 5638 5640 5641 5642 5643 5644 5645 5647 5648 5650 5652 5653 5654 5656 5657 5658 5660 5661 5661 5662 5663 5664 5665 5666 5667 5667 5668 5669 5669 5669 5669 5668 5667 5667 5666 5665 5663
5625 5626 5627 5628 5629 5629 5630 5631 5632 5633 5634 5635 5636 5637 5638 5640 5641 5643 5644 5645 5647 5648 5649 5650 5651 5651 5652 5653 5654 5655 5656 5657 5657 5658 5658 5659 5659 5658 5658 5657 5656 5655 5654
5618 5618 5619 5620 5620 5621 5622 5622 5623 5624 5624 5625 5626 5627 5628 5629 5631 5632 5634 5635 5636 5637 5638 5639 5640 5641 5641 5642 5642 5643 5644 5645 5646 5647 5647 5648 5648 5648 5648 5647 5646 5646 5644
5611 5611 5612 5612 5612 5613 5613 5614 5614 5615 5615 5616 5617 5618 5618 5619 5621 5622 5623 5625 5626 5626 5627 5628 5628 5629 5630 5630 5631 5631 5632 5634 5635 5635 5636 5637 5637 5637 5637 5637 5637 5636 5635
5604 5604 5604 5604 5604 5604 5605 5605 5605 5606 5606 5606 5607 5608 5609 5609 5610 5612 5613 5614 5614 5615 5616 5617 5617 5618 5618 5619 5619 5620 5621 5622 5623 5624 5625 5626 5626 5627 5627 5627 5627 5626 5626
5597 5597 5596 5596 5596 5596 5596 5597 5597 5597 5597 5597 5597 5598 5598 5599 5600 5601 5602 5602 5603 5604 5605 5605 5605 5606 5607 5607 5608 5609 5610 5611 5612 5613 5614 5615 5615 5616 5616 5616 5616 5617 5616
5590 5589 5589 5588 5588 5588 5588 5588 5588 5588 5588 5588 5588 5588 5589 5589 5590 5590 5591 5591 5592 5593 5593 5594 5594 5594 5595 5596 5597 5598 5599 5600 5601 5602 5603 5604 5604 5605 5605 5606 5606 5606 5606
5582 5582 5581 5580 5580 5579 5579 5579 5579 5579 5579 5579 5579 5579 5579 5579 5579 5579 5579 5580 5580 5581 5582 5582 5583 5583 5584 5585 5586 5587 5588 5589 5590 5591 5591 5592 5593 5594 5595 5596 5596 5595 5595
5575 5574 5573 5573 5572 5571 5571 5571 5570 5570 5570 5570 5570 5569 5569 5569 5568 5568 5568 5569 5569 5569 5570 5571 5571 5572 5573 5574 5575 5575 5576 5577 5579 5580 5580 5581 5582 5583 5584 5585 5585 5585 5585
5568 5567 5566 5565 5564 5563 5562 5562 5561 5561 5561 5560 5560 5560 5559 5558 5558 5557 5557 5557 5558 5559 5559 5560 5560 5561 5562 5563 5564 5564 5565 5566 5568 5569 5570 5571 5572 5573 5573 5574 5575 5575 5576
5560 5559 5558 5557 5556 5555 5553 5553 5552 5551 5551 5550 5550 5549 5549 5548 5548 5547 5547 5547 5548 5548 5549 5549 5550 5551 5552 5552 5553 5554 5555 5556 5557 5558 5559 5560 5562 5563 5564 5564 5565 5566 5567
5552 5551 5550 5548 5547 5546 5545 5543 5543 5542 5541 5540 5540 5540 5539 5538 5538 5537 5537 5537 5538 5538 5538 5539 5540 5541 5541 5542 5543 5543 5544 5545 5546 5547 5549 5550 5551 5553 5554 5555 5556 5557 5558